INTELSAT 10-02

Last updated on Thu Nov 21 2024 00:02:40 GMT+0000 (Coordinated Universal Time)

1 28358U 04022A 24325.60079760 -.00000009 00000+0 00000+0 0 9993 2 28358 0.0315 72.8211 0001043 194.2883 8.3197 1.00270359 74805
UTC large
Height (km)
Speed (km/s)
/
Latitude / Longitude
Inclination (degrees)
Orbital Period (minutes)
Azimuth
Elevation
Range (km)
Doppler Factor

Next 0 passes for location: London (51.5072 / 0.1276)

Sorry there are no passes over London.